CAPE
nan nan nan nan nan nan nan nan nan nan nan nan nan nan 1 2 nan nan nan nan nan nan nan nan nan nan nan nan 1 1 2 3 5 5 6 6 6 6 6 7 7 6 5 4 4 2 0 nan nan nan nan nan nan nan nan 0 0 0 1 2 2 4 7 11 11 15 17 17 16 16 16 15 8 8 0 nan nan nan nan nan nan nan 2 4 4 4
nan nan nan nan nan nan nan nan nan nan nan nan nan nan 0 nan nan nan nan nan nan nan nan nan nan nan nan nan 0 0 1 3 4 4 4 4 4 4 4 5 5 4 4 2 2 0 nan nan nan nan nan nan nan nan nan nan nan nan 0 0 0 1 3 7 7 10 13 15 13 13 13 11 6 6 1 nan nan nan nan nan nan nan 2 2 2 4
nan nan nan nan nan nan nan nan nan nan nan nan nan nan nan nan nan nan nan nan nan nan nan nan nan nan nan nan nan nan nan 1 2 2 3 3 3 3 3 3 3 3 3 1 1 0 nan nan nan nan nan nan nan nan nan nan nan nan nan nan nan nan 0 1 1 5 7 8 9 9 7 7 5 5 3 1 3 3 3 1 1 1 3 4 4 8
nan nan nan nan nan nan nan nan nan nan nan nan nan nan nan nan nan nan nan nan nan nan nan nan nan nan nan nan nan nan nan nan nan nan 0 0 1 1 1 1 1 2 1 0 0 nan nan nan nan nan nan nan nan nan nan nan nan nan nan nan nan nan nan nan nan 0 1 3 2 2 2 4 4 4 5 7 6 6 7 5 5 3 3 6 6 8
nan nan nan nan nan nan nan nan nan nan nan nan nan nan nan nan nan nan nan nan nan nan nan nan nan nan nan nan nan nan nan nan nan nan nan nan nan nan nan 0 0 0 0 nan nan nan nan nan nan nan nan nan nan nan nan nan nan nan nan nan nan nan nan nan nan nan nan 0 0 0 2 3 4 4 7 8 8 8 8 8 8 6 7 7 7 9
nan nan nan nan nan nan nan nan nan nan nan nan nan nan nan nan nan nan nan nan nan nan nan nan nan nan nan nan nan nan nan nan nan nan nan nan nan nan nan nan nan nan nan nan nan nan nan nan nan nan nan nan nan nan nan nan nan nan nan nan nan nan nan nan nan nan nan nan nan nan 1 2 3 3 4 6 8 8 10 10 10 11 10 10 10 10
nan nan nan nan nan nan nan nan nan nan nan nan nan nan nan nan nan nan nan nan nan nan nan nan nan nan nan nan nan nan nan nan nan nan nan nan nan nan nan nan nan nan nan nan nan nan nan nan nan nan nan nan nan nan nan nan nan nan nan nan nan nan nan nan nan nan nan nan nan nan 0 1 2 2 1 3 7 7 10 13 13 15 13 13 13 11
nan nan nan nan nan nan nan nan nan nan nan nan nan nan nan nan nan nan nan nan nan nan nan nan nan nan nan nan nan nan nan nan nan nan nan nan nan nan nan nan nan nan nan nan nan nan nan nan nan nan nan nan nan nan nan nan nan nan nan nan nan nan nan nan nan nan nan nan nan nan nan nan 1 1 2 5 5 5 7 11 11 15 18 17 17 15
nan nan nan nan nan nan nan nan nan nan nan nan nan nan nan nan nan nan nan nan nan nan nan nan nan nan nan nan nan nan nan nan nan nan nan nan nan nan nan nan nan nan nan nan nan nan nan nan nan nan nan nan nan nan nan nan nan nan nan nan nan nan nan nan nan nan nan nan nan nan nan nan 0 0 3 6 7 7 8 11 11 13 16 16 16 14
nan nan nan nan nan nan nan nan nan nan nan nan nan nan nan nan nan nan nan nan nan nan nan nan nan nan nan nan nan nan nan nan nan nan nan nan nan nan nan nan nan nan nan nan nan nan nan nan nan nan nan nan nan nan nan nan nan nan nan nan nan nan nan nan nan nan nan nan nan nan nan nan 0 0 2 6 8 8 10 11 11 13 13 14 14 13
nan nan nan nan nan nan nan nan nan nan nan nan nan nan nan nan nan nan nan nan nan nan nan nan nan nan nan nan nan nan nan nan nan nan nan nan nan nan nan nan nan nan nan nan nan nan nan nan nan nan nan nan nan nan nan nan nan nan nan nan nan nan nan nan nan nan nan nan nan nan nan nan nan nan 0 4 8 8 10 10 10 11 11 10 10 10
nan nan nan nan nan nan nan nan nan nan nan nan nan nan nan nan nan nan nan nan nan nan nan nan nan nan nan nan nan nan nan nan nan nan nan nan nan nan nan nan nan nan nan nan nan nan nan nan nan nan nan nan nan nan nan nan nan nan nan nan nan nan nan nan nan nan nan nan nan nan nan nan nan nan nan 1 4 4 6 8 8 9 9 8 8 7
nan nan nan nan nan nan nan nan nan nan nan nan nan nan nan nan nan nan nan nan nan nan nan nan nan nan nan nan nan nan nan nan nan nan nan nan nan nan nan nan nan nan nan nan nan nan nan nan nan nan nan nan nan nan nan nan nan nan nan nan nan nan nan nan nan nan 0 0 nan nan nan nan nan nan nan 0 1 1 3 4 4 6 6 6 6 5
nan nan nan nan nan nan nan nan nan nan nan nan nan nan nan nan nan nan nan nan nan nan nan nan nan nan nan nan nan nan nan nan nan nan nan nan nan nan nan nan nan nan nan nan nan nan nan nan nan nan nan nan nan nan nan nan nan nan nan nan nan nan 0 0 0 0 1 1 0 0 1 1 1 1 2 1 2 2 2 3 3 4 5 5 5 7
nan nan nan nan nan nan nan nan nan nan nan nan nan nan nan nan nan nan nan nan nan nan nan nan nan nan nan nan nan nan nan nan nan nan nan nan nan nan nan nan nan nan nan nan nan nan nan nan nan nan nan nan nan nan nan nan nan nan nan nan nan nan 0 1 1 1 2 2 2 2 2 3 4 4 4 4 5 5 3 4 4 6 6 8 8 10
nan nan nan nan nan nan nan nan nan nan nan nan nan nan nan nan nan nan nan nan nan nan nan nan nan nan nan nan nan nan nan nan nan nan nan nan nan nan nan nan nan nan nan nan nan nan nan nan nan nan nan nan nan nan nan nan nan nan nan nan nan nan 0 1 1 2 2 3 3 3 4 4 5 5 6 7 8 8 9 10 10 11 11 10 10 15
nan nan nan nan nan nan nan nan nan nan nan nan nan nan nan nan nan nan nan nan nan nan nan nan nan nan nan nan nan nan nan nan nan nan nan nan nan nan nan nan nan nan nan nan nan nan nan nan nan nan nan nan nan nan nan nan nan nan nan nan nan nan 0 1 1 2 3 4 5 5 6 6 6 6 7 9 10 10 12 17 17 18 17 17 17 21
nan nan nan nan nan nan nan nan nan nan nan nan nan nan nan nan nan nan nan nan nan nan nan nan nan nan nan nan nan nan nan nan nan nan nan nan nan nan nan nan nan nan nan nan nan nan nan nan nan nan nan nan nan nan nan nan nan nan 0 0 0 1 1 1 1 2 3 5 5 5 6 8 7 7 7 8 9 9 12 17 17 20 24 30 30 29
nan nan nan nan nan nan nan nan nan nan nan nan nan nan nan nan nan nan nan nan nan nan nan nan nan nan nan nan nan nan nan nan nan nan nan nan nan nan nan nan nan nan nan nan nan nan nan nan nan nan nan nan nan nan nan nan nan 0 1 2 2 2 2 2 2 3 3 4 5 5 7 8 8 8 8 8 8 8 11 14 14 19 26 31 31 29
nan nan nan nan nan nan nan nan nan nan nan nan nan nan nan nan nan nan nan nan nan nan nan nan nan nan nan nan nan nan nan nan nan nan nan nan nan nan nan nan nan nan nan nan nan nan nan nan nan nan nan nan nan nan nan nan nan 0 1 2 2 2 2 3 3 3 3 4 4 4 5 6 7 7 8 8 8 8 9 11 11 15 22 29 29 29
nan nan nan nan nan nan nan nan nan nan nan nan nan nan nan nan nan nan nan nan nan nan nan nan nan nan nan nan nan nan nan nan nan nan nan nan nan nan nan nan nan nan nan nan nan nan nan nan nan nan nan nan nan nan nan nan nan 0 0 0 0 1 2 2 2 3 3 3 4 4 4 6 6 6 6 7 8 8 9 9 9 12 16 22 22 24
nan nan nan nan nan nan nan nan nan nan nan nan nan nan nan nan nan nan nan nan nan nan nan nan nan nan nan nan nan nan nan nan nan nan nan nan nan nan nan nan nan nan nan nan nan nan nan nan nan nan nan nan nan nan nan nan nan nan nan nan nan 1 3 4 4 5 5 6 7 7 7 7 7 7 8 7 7 7 8 8 8 10 12 15 15 19
nan nan nan nan nan nan nan nan nan nan nan nan nan nan nan nan nan nan nan nan nan nan nan nan nan nan nan nan nan nan nan nan nan nan nan nan nan nan nan nan nan nan nan nan nan nan nan nan nan nan nan nan nan nan nan nan nan nan nan nan nan 1 3 5 5 6 7 6 8 8 9 9 8 8 9 9 9 9 8 8 8 8 10 12 12 13
nan nan nan nan nan nan nan nan nan nan nan nan nan nan nan nan nan nan nan nan nan nan nan nan nan nan nan nan nan nan nan nan nan nan nan nan nan nan nan nan nan nan nan nan nan nan nan nan nan nan nan nan nan nan nan nan nan nan nan nan nan 1 3 4 4 5 6 6 8 8 8 10 12 12 12 12 11 11 9 8 8 9 9 10 10 13
nan nan nan nan nan nan nan nan nan nan nan nan nan nan nan nan nan nan nan nan nan nan nan nan nan nan nan nan nan nan nan nan nan nan nan nan nan nan nan nan nan nan nan nan nan nan nan nan nan nan nan nan nan nan nan nan nan nan nan nan nan 0 1 2 2 3 3 5 5 5 7 9 12 12 14 15 13 13 13 11 11 11 12 14 14 15
nan nan nan nan nan nan nan nan nan nan nan nan nan nan nan nan nan nan nan nan nan nan nan nan nan nan nan nan nan nan nan nan nan nan nan nan nan nan nan nan nan nan nan nan nan nan nan nan nan nan nan nan nan nan nan nan nan nan nan nan nan nan 0 0 0 1 1 2 3 3 4 7 9 9 13 15 15 15 15 13 13 14 14 14 14 16
nan nan nan nan nan nan nan nan 1 1 1 nan nan nan nan nan nan nan nan nan nan nan nan nan nan nan nan nan nan nan nan nan nan nan nan nan nan nan nan nan nan nan nan nan nan nan nan nan nan nan nan nan nan nan nan nan nan nan nan nan nan nan 0 1 1 2 2 2 2 2 3 4 6 6 10 12 15 15 17 16 16 15 13 13 13 15
nan nan nan nan nan nan nan nan nan nan 1 1 1 1 nan nan nan nan nan nan nan nan nan nan nan nan nan nan nan nan nan nan nan nan nan nan nan nan nan nan nan nan nan nan nan nan nan nan nan nan nan nan nan nan nan nan nan nan nan nan nan 0 1 2 2 3 3 3 3 3 3 3 4 4 7 10 12 12 15 17 17 16 14 5 5 nan
nan nan nan nan nan nan nan nan nan nan 0 2 6 6 nan nan nan nan nan nan nan nan nan nan nan nan nan nan nan nan nan nan nan nan nan nan nan nan nan nan nan nan nan nan nan nan nan nan nan nan nan nan nan nan nan nan nan nan nan nan nan nan 0 1 1 1 2 2 2 2 3 3 3 3 4 7 10 10 13 16 16 17 10 0 0 nan
nan nan nan nan nan 0 nan nan nan nan 1 3 6 6 nan nan nan nan nan nan nan nan nan nan nan nan nan nan nan nan nan nan nan nan nan nan nan nan nan nan nan nan nan nan nan nan nan nan nan nan nan nan nan nan nan nan nan nan nan nan nan nan nan nan nan nan 0 1 2 2 3 3 3 3 4 5 8 8 10 13 13 13 2 nan nan nan
nan nan nan nan nan nan nan nan nan nan 2 3 2 2 nan nan nan nan nan nan nan nan nan nan nan nan nan nan nan nan nan nan nan nan nan nan nan nan nan nan nan nan nan nan nan nan nan nan nan nan nan nan nan nan nan nan nan nan nan nan nan nan nan nan nan nan 0 1 1 1 3 4 5 5 4 5 6 6 9 10 10 10 nan nan nan nan
nan nan nan nan nan nan nan nan nan nan nan nan nan nan nan nan nan nan nan nan nan nan nan nan nan nan nan nan nan nan nan nan nan nan nan nan nan nan nan nan nan nan nan nan nan nan nan nan nan nan nan nan nan nan nan nan nan nan nan nan nan nan nan nan nan nan nan nan 0 0 1 2 3 3 3 4 5 5 6 7 7 7 nan nan nan nan
nan nan nan nan nan nan nan nan nan nan nan nan nan nan nan nan nan nan nan nan nan nan nan nan nan nan nan nan nan nan nan nan nan nan nan nan nan nan nan nan nan nan nan nan nan nan nan nan nan nan nan nan nan nan nan nan nan nan nan nan nan nan nan nan nan nan nan nan nan nan 1 1 2 2 2 3 4 4 6 6 6 9 1 nan nan nan
nan nan nan nan nan nan nan nan nan nan nan nan nan nan nan nan nan nan nan nan nan nan nan nan nan nan nan nan nan nan nan nan nan nan nan nan nan nan nan nan nan nan nan nan nan nan nan nan nan nan nan nan nan nan nan nan nan nan nan nan nan nan nan nan nan nan nan nan nan nan nan nan 0 0 2 3 3 3 4 6 6 8 10 nan nan nan
nan nan nan nan nan nan nan nan nan nan nan nan nan nan nan nan nan nan nan nan nan nan nan nan nan nan nan nan nan nan nan nan nan nan nan nan nan nan nan nan nan nan nan nan nan nan nan nan nan nan nan nan nan nan nan nan nan nan nan nan nan nan nan nan nan nan nan nan nan nan nan nan nan nan nan 1 4 4 3 5 5 7 8 12 12 0
nan nan nan nan nan nan nan nan nan nan nan nan nan nan nan nan nan nan nan nan nan nan nan nan nan nan nan nan nan nan nan nan nan nan nan nan nan nan nan nan nan nan nan nan nan nan nan nan nan nan nan nan nan nan nan nan nan nan nan nan nan nan nan nan nan nan nan nan nan nan nan nan nan nan nan 4 7 7 6 7 7 7 8 8 8 7
nan nan nan nan nan nan nan nan nan nan nan nan nan nan nan nan nan nan nan nan nan nan nan nan nan nan nan nan nan nan nan nan nan nan nan nan nan nan nan nan nan nan nan nan nan nan nan nan nan nan nan nan nan nan nan nan nan nan nan nan nan nan nan nan nan nan nan nan nan nan nan nan nan nan nan 4 1 1 3 8 8 7 8 8 8 8
nan nan nan nan nan nan nan nan nan nan nan nan nan nan nan nan nan nan nan nan nan nan nan nan nan nan nan nan nan nan nan nan nan nan nan nan nan nan nan nan nan nan nan nan nan nan nan nan nan nan nan nan nan nan nan nan nan nan nan nan nan nan nan nan nan nan nan nan nan nan nan nan nan nan nan nan nan nan nan nan nan nan 4 2 2 7
nan nan nan nan nan nan nan nan nan nan nan nan nan nan nan nan nan nan nan nan nan nan nan nan nan nan nan nan nan nan nan nan nan nan nan nan nan nan nan nan nan nan nan nan nan nan nan nan nan nan nan nan nan nan nan nan nan nan nan nan nan nan nan nan nan nan nan nan nan nan nan nan nan nan nan nan nan nan nan nan nan nan nan nan nan nan
nan nan nan nan nan nan nan nan nan nan nan nan nan nan nan nan nan nan nan nan nan nan nan nan nan nan nan nan nan nan nan nan nan nan nan nan nan nan nan nan nan nan nan nan nan nan nan nan nan nan nan nan nan nan nan nan nan nan nan nan nan nan nan nan nan nan nan nan nan nan nan nan nan nan nan nan nan nan nan nan nan nan nan nan nan nan
nan nan nan nan nan nan nan nan nan nan nan nan nan nan nan nan nan nan nan nan nan nan nan nan nan nan nan nan nan nan nan nan nan nan nan nan nan nan nan nan nan nan nan nan nan nan nan nan nan nan nan nan nan nan nan nan nan nan 1 nan nan nan nan nan nan nan nan nan nan nan nan nan nan nan nan nan nan nan nan nan nan nan nan nan nan nan
nan nan nan nan nan nan nan nan nan nan nan nan nan nan nan nan nan nan nan nan nan nan nan nan nan nan nan nan nan nan nan nan nan nan nan nan nan nan nan nan nan nan nan nan nan nan nan nan nan nan nan nan nan nan nan nan nan nan nan nan nan nan nan nan nan nan nan nan nan nan nan nan nan nan nan nan nan nan nan nan nan nan nan nan nan nan
nan nan nan nan nan nan nan nan nan nan nan nan nan nan nan nan nan nan nan nan nan nan nan nan nan nan nan nan nan nan nan nan nan nan nan nan nan nan nan nan nan nan nan nan nan nan nan 0 0 nan nan nan nan nan nan nan nan nan nan nan nan nan nan nan nan nan nan nan nan nan nan nan nan nan nan nan nan nan nan nan nan nan nan nan nan nan
nan nan nan nan nan nan nan nan nan nan nan nan nan nan nan nan nan nan nan nan nan nan nan nan nan nan nan nan nan nan nan nan nan nan nan nan nan nan nan nan nan nan nan nan nan nan nan nan nan nan nan nan nan nan nan nan nan nan nan nan nan nan nan nan nan nan nan nan nan nan nan nan nan nan nan nan nan nan nan nan nan nan nan nan nan nan
nan nan nan nan nan nan nan nan nan nan nan nan nan nan nan nan nan nan nan nan nan nan nan nan nan nan nan nan nan nan nan nan nan nan nan nan nan nan nan nan nan nan nan nan nan nan nan nan nan nan nan nan nan nan nan nan nan nan nan nan nan nan nan nan nan nan nan nan nan nan nan nan nan nan nan nan nan nan nan nan nan nan nan nan nan nan
nan nan nan nan nan nan nan nan nan nan nan nan nan nan nan nan nan nan nan nan nan nan nan nan nan nan nan nan nan nan nan nan nan nan nan nan nan nan nan nan nan nan nan nan nan nan nan nan nan nan nan nan nan nan nan nan nan nan nan nan nan nan nan nan nan nan nan nan nan nan nan nan nan nan nan nan nan nan nan nan nan nan nan nan nan nan
nan nan nan nan nan nan nan nan nan nan nan nan nan nan nan nan nan nan nan nan nan nan nan nan nan nan nan nan nan nan nan nan nan nan nan nan nan nan nan nan nan nan nan nan nan nan nan nan nan nan nan nan nan nan nan nan nan nan nan nan nan nan nan nan nan nan nan nan nan nan nan nan nan nan nan nan nan nan nan nan nan nan nan nan nan nan
nan nan nan nan nan nan nan nan nan nan nan nan nan nan nan nan nan nan nan nan nan nan nan nan nan nan nan nan nan nan nan nan nan nan nan nan nan nan nan nan nan nan nan nan nan nan nan nan nan nan nan nan nan nan nan nan nan nan nan nan nan nan nan nan nan nan nan nan nan nan nan nan nan nan nan nan nan nan nan nan nan nan nan nan nan nan
nan nan nan nan nan nan nan nan nan nan nan nan nan nan nan nan nan nan nan nan nan nan nan nan nan nan nan nan nan nan nan nan nan nan nan nan nan nan nan nan nan nan nan nan nan nan nan nan nan nan nan nan nan nan nan nan nan nan nan nan nan nan nan nan nan nan nan nan nan nan nan nan nan nan nan nan nan nan nan nan nan nan nan nan nan nan
nan nan nan nan nan nan nan nan nan nan nan nan nan nan nan nan nan nan nan nan nan nan nan nan nan nan nan nan nan nan nan nan nan nan nan nan nan nan nan nan nan nan nan nan nan nan nan 0 0 1 5 1 nan nan nan nan nan nan nan nan nan nan nan nan nan nan nan nan nan nan nan nan nan nan nan nan nan nan nan nan nan nan nan nan nan nan
nan nan nan nan nan nan nan nan nan nan nan nan nan nan nan nan nan nan nan nan nan nan nan nan nan nan nan nan nan nan nan nan nan nan nan nan nan nan nan nan nan nan nan nan nan nan nan nan nan 0 7 15 1 1 nan nan nan nan nan nan nan nan nan nan nan nan nan nan nan nan nan nan nan nan nan nan nan nan nan nan nan nan nan nan nan nan
CIN
nan nan nan nan nan nan nan nan nan nan nan nan nan nan -15 -10 nan nan nan nan nan nan nan nan nan nan nan nan -0 -0 -0 -0 -0 -0 -0 -0 -0 -0 -0 -0 -0 -0 -0 -0 -0 -0 -0 nan nan nan nan nan nan nan nan -0 -0 -0 -0 -0 -0 -0 -0 -0 -0 -0 -0 -0 -0 -0 -0 -0 -0 -0 -0 nan nan nan nan nan nan nan -0 -0 -0 -0
nan nan nan nan nan nan nan nan nan nan nan nan nan nan -15 nan nan nan nan nan nan nan nan nan nan nan nan nan -0 -0 -0 -0 -0 -0 -0 -0 -0 -0 -0 -0 -0 -0 -0 -0 -0 -0 nan nan nan nan nan nan nan nan nan nan nan nan -0 -0 -0 -0 -0 -0 -0 -0 -0 -0 -0 -0 -0 -0 -0 -0 -0 nan nan nan nan nan nan nan -0 -0 -0 -0
nan nan nan nan nan nan nan nan nan nan nan nan nan nan nan nan nan nan nan nan nan nan nan nan nan nan nan nan nan nan nan -0 -0 -0 -0 -0 -0 -0 -0 -0 -0 -0 -0 -0 -0 -0 nan nan nan nan nan nan nan nan nan nan nan nan nan nan nan nan -0 -0 -0 -0 -0 -0 -0 -0 -0 -0 -0 -0 -0 -0 -0 -0 -0 -0 -0 -0 -0 -0 -0 -0
nan nan nan nan nan nan nan nan nan nan nan nan nan nan nan nan nan nan nan nan nan nan nan nan nan nan nan nan nan nan nan nan nan nan -0 -0 -0 -0 -0 -0 -0 -0 -0 -0 -0 nan nan nan nan nan nan nan nan nan nan nan nan nan nan nan nan nan nan nan nan -0 -0 -0 -0 -0 -0 -0 -0 -0 -0 -0 -0 -0 -0 -0 -0 -0 -0 -0 -0 -0
nan nan nan nan nan nan nan nan nan nan nan nan nan nan nan nan nan nan nan nan nan nan nan nan nan nan nan nan nan nan nan nan nan nan nan nan nan nan nan -0 -0 -0 -0 nan nan nan nan nan nan nan nan nan nan nan nan nan nan nan nan nan nan nan nan nan nan nan nan -0 -0 -0 -0 -0 -0 -0 -0 -0 -0 -0 -0 -0 -0 -0 -0 -0 -0 -0
nan nan nan nan nan nan nan nan nan nan nan nan nan nan nan nan nan nan nan nan nan nan nan nan nan nan nan nan nan nan nan nan nan nan nan nan nan nan nan nan nan nan nan nan nan nan nan nan nan nan nan nan nan nan nan nan nan nan nan nan nan nan nan nan nan nan nan nan nan nan -0 -0 -0 -0 -0 -0 -0 -0 -0 -0 -0 -0 -0 -0 -0 -0
nan nan nan nan nan nan nan nan nan nan nan nan nan nan nan nan nan nan nan nan nan nan nan nan nan nan nan nan nan nan nan nan nan nan nan nan nan nan nan nan nan nan nan nan nan nan nan nan nan nan nan nan nan nan nan nan nan nan nan nan nan nan nan nan nan nan nan nan nan nan -0 -0 -0 -0 -0 -0 -0 -0 -0 -0 -0 -0 -0 -0 -0 -0
nan nan nan nan nan nan nan nan nan nan nan nan nan nan nan nan nan nan nan nan nan nan nan nan nan nan nan nan nan nan nan nan nan nan nan nan nan nan nan nan nan nan nan nan nan nan nan nan nan nan nan nan nan nan nan nan nan nan nan nan nan nan nan nan nan nan nan nan nan nan nan nan -0 -0 -0 -0 -0 -0 -0 -0 -0 -0 -0 -0 -0 -0
nan nan nan nan nan nan nan nan nan nan nan nan nan nan nan nan nan nan nan nan nan nan nan nan nan nan nan nan nan nan nan nan nan nan nan nan nan nan nan nan nan nan nan nan nan nan nan nan nan nan nan nan nan nan nan nan nan nan nan nan nan nan nan nan nan nan nan nan nan nan nan nan -0 -0 -0 -0 -0 -0 -0 -0 -0 -0 -0 -0 -0 -0
nan nan nan nan nan nan nan nan nan nan nan nan nan nan nan nan nan nan nan nan nan nan nan nan nan nan nan nan nan nan nan nan nan nan nan nan nan nan nan nan nan nan nan nan nan nan nan nan nan nan nan nan nan nan nan nan nan nan nan nan nan nan nan nan nan nan nan nan nan nan nan nan -0 -0 -0 -0 -0 -0 -0 -0 -0 -0 -0 -0 -0 -0
nan nan nan nan nan nan nan nan nan nan nan nan nan nan nan nan nan nan nan nan nan nan nan nan nan nan nan nan nan nan nan nan nan nan nan nan nan nan nan nan nan nan nan nan nan nan nan nan nan nan nan nan nan nan nan nan nan nan nan nan nan nan nan nan nan nan nan nan nan nan nan nan nan nan -0 -0 -0 -0 -0 -0 -0 -0 -0 -0 -0 -0
nan nan nan nan nan nan nan nan nan nan nan nan nan nan nan nan nan nan nan nan nan nan nan nan nan nan nan nan nan nan nan nan nan nan nan nan nan nan nan nan nan nan nan nan nan nan nan nan nan nan nan nan nan nan nan nan nan nan nan nan nan nan nan nan nan nan nan nan nan nan nan nan nan nan nan -0 -0 -0 -0 -0 -0 -0 -0 -0 -0 -0
nan nan nan nan nan nan nan nan nan nan nan nan nan nan nan nan nan nan nan nan nan nan nan nan nan nan nan nan nan nan nan nan nan nan nan nan nan nan nan nan nan nan nan nan nan nan nan nan nan nan nan nan nan nan nan nan nan nan nan nan nan nan nan nan nan nan -0 -0 nan nan nan nan nan nan nan -0 -0 -0 -0 -0 -0 -0 -0 -0 -0 -0
nan nan nan nan nan nan nan nan nan nan nan nan nan nan nan nan nan nan nan nan nan nan nan nan nan nan nan nan nan nan nan nan nan nan nan nan nan nan nan nan nan nan nan nan nan nan nan nan nan nan nan nan nan nan nan nan nan nan nan nan nan nan -0 -0 -0 -0 -0 -0 -0 -0 -0 -0 -0 -0 -0 -0 -0 -0 -0 -0 -0 -0 -0 -0 -0 -0
nan nan nan nan nan nan nan nan nan nan nan nan nan nan nan nan nan nan nan nan nan nan nan nan nan nan nan nan nan nan nan nan nan nan nan nan nan nan nan nan nan nan nan nan nan nan nan nan nan nan nan nan nan nan nan nan nan nan nan nan nan nan -0 -0 -0 -0 -0 -0 -0 -0 -0 -0 -0 -0 -0 -0 -0 -0 -0 -0 -0 -0 -0 -0 -0 -0
nan nan nan nan nan nan nan nan nan nan nan nan nan nan nan nan nan nan nan nan nan nan nan nan nan nan nan nan nan nan nan nan nan nan nan nan nan nan nan nan nan nan nan nan nan nan nan nan nan nan nan nan nan nan nan nan nan nan nan nan nan nan -0 -0 -0 -0 -0 -0 -0 -0 -0 -0 -0 -0 -0 -0 -0 -0 -0 -0 -0 -0 -0 -0 -0 -0
nan nan nan nan nan nan nan nan nan nan nan nan nan nan nan nan nan nan nan nan nan nan nan nan nan nan nan nan nan nan nan nan nan nan nan nan nan nan nan nan nan nan nan nan nan nan nan nan nan nan nan nan nan nan nan nan nan nan nan nan nan nan -0 -0 -0 -0 -0 -0 -0 -0 -0 -0 -0 -0 -0 -0 -0 -0 -0 -0 -0 -0 -0 -0 -0 -0
nan nan nan nan nan nan nan nan nan nan nan nan nan nan nan nan nan nan nan nan nan nan nan nan nan nan nan nan nan nan nan nan nan nan nan nan nan nan nan nan nan nan nan nan nan nan nan nan nan nan nan nan nan nan nan nan nan nan -0 -0 -0 -0 -0 -0 -0 -0 -0 -0 -0 -0 -0 -0 -0 -0 -0 -0 -0 -0 -0 -0 -0 -0 -0 -0 -0 -0
nan nan nan nan nan nan nan nan nan nan nan nan nan nan nan nan nan nan nan nan nan nan nan nan nan nan nan nan nan nan nan nan nan nan nan nan nan nan nan nan nan nan nan nan nan nan nan nan nan nan nan nan nan nan nan nan nan -0 -0 -0 -0 -0 -0 -0 -0 -0 -0 -0 -0 -0 -0 -0 -0 -0 -0 -0 -0 -0 -0 -0 -0 -0 -0 -0 -0 -0
nan nan nan nan nan nan nan nan nan nan nan nan nan nan nan nan nan nan nan nan nan nan nan nan nan nan nan nan nan nan nan nan nan nan nan nan nan nan nan nan nan nan nan nan nan nan nan nan nan nan nan nan nan nan nan nan nan -0 -0 -0 -0 -0 -0 -0 -0 -0 -0 -0 -0 -0 -0 -0 -0 -0 -0 -0 -0 -0 -0 -0 -0 -0 -0 -0 -0 -0
nan nan nan nan nan nan nan nan nan nan nan nan nan nan nan nan nan nan nan nan nan nan nan nan nan nan nan nan nan nan nan nan nan nan nan nan nan nan nan nan nan nan nan nan nan nan nan nan nan nan nan nan nan nan nan nan nan -0 -0 -0 -0 -0 -0 -0 -0 -0 -0 -0 -0 -0 -0 -0 -0 -0 -0 -0 -0 -0 -0 -0 -0 -0 -0 -0 -0 -0
nan nan nan nan nan nan nan nan nan nan nan nan nan nan nan nan nan nan nan nan nan nan nan nan nan nan nan nan nan nan nan nan nan nan nan nan nan nan nan nan nan nan nan nan nan nan nan nan nan nan nan nan nan nan nan nan nan nan nan nan nan -0 -0 -0 -0 -0 -0 -0 -0 -0 -0 -0 -0 -0 -0 -0 -0 -0 -0 -0 -0 -0 -0 -0 -0 -0
nan nan nan nan nan nan nan nan nan nan nan nan nan nan nan nan nan nan nan nan nan nan nan nan nan nan nan nan nan nan nan nan nan nan nan nan nan nan nan nan nan nan nan nan nan nan nan nan nan nan nan nan nan nan nan nan nan nan nan nan nan -0 -0 -0 -0 -0 -0 -0 -0 -0 -0 -0 -0 -0 -0 -0 -0 -0 -0 -0 -0 -0 -0 -0 -0 -0
nan nan nan nan nan nan nan nan nan nan nan nan nan nan nan nan nan nan nan nan nan nan nan nan nan nan nan nan nan nan nan nan nan nan nan nan nan nan nan nan nan nan nan nan nan nan nan nan nan nan nan nan nan nan nan nan nan nan nan nan nan -0 -0 -0 -0 -0 -0 -0 -0 -0 -0 -0 -0 -0 -0 -0 -0 -0 -0 -0 -0 -0 -0 -0 -0 -0
nan nan nan nan nan nan nan nan nan nan nan nan nan nan nan nan nan nan nan nan nan nan nan nan nan nan nan nan nan nan nan nan nan nan nan nan nan nan nan nan nan nan nan nan nan nan nan nan nan nan nan nan nan nan nan nan nan nan nan nan nan -0 -0 -0 -0 -0 -0 -0 -0 -0 -0 -0 -0 -0 -0 -0 -0 -0 -0 -0 -0 -0 -0 -0 -0 -0
nan nan nan nan nan nan nan nan nan nan nan nan nan nan nan nan nan nan nan nan nan nan nan nan nan nan nan nan nan nan nan nan nan nan nan nan nan nan nan nan nan nan nan nan nan nan nan nan nan nan nan nan nan nan nan nan nan nan nan nan nan nan -0 -0 -0 -0 -0 -0 -0 -0 -0 -0 -0 -0 -0 -0 -0 -0 -0 -0 -0 -0 -0 -0 -0 -0
nan nan nan nan nan nan nan nan -0 -0 -0 nan nan nan nan nan nan nan nan nan nan nan nan nan nan nan nan nan nan nan nan nan nan nan nan nan nan nan nan nan nan nan nan nan nan nan nan nan nan nan nan nan nan nan nan nan nan nan nan nan nan nan -0 -0 -0 -0 -0 -0 -0 -0 -0 -0 -0 -0 -0 -0 -0 -0 -0 -0 -0 -0 -0 -0 -0 -0
nan nan nan nan nan nan nan nan nan nan -0 -0 -0 -0 nan nan nan nan nan nan nan nan nan nan nan nan nan nan nan nan nan nan nan nan nan nan nan nan nan nan nan nan nan nan nan nan nan nan nan nan nan nan nan nan nan nan nan nan nan nan nan -0 -0 -0 -0 -0 -0 -0 -0 -0 -0 -0 -0 -0 -0 -0 -0 -0 -0 -0 -0 -0 -0 -10 -10 nan
nan nan nan nan nan nan nan nan nan nan -0 -0 -0 -0 nan nan nan nan nan nan nan nan nan nan nan nan nan nan nan nan nan nan nan nan nan nan nan nan nan nan nan nan nan nan nan nan nan nan nan nan nan nan nan nan nan nan nan nan nan nan nan nan -0 -0 -0 -0 -0 -0 -0 -0 -0 -0 -0 -0 -0 -0 -0 -0 -0 -0 -0 -0 -0 -33 -33 nan
nan nan nan nan nan -0 nan nan nan nan -0 -0 -0 -0 nan nan nan nan nan nan nan nan nan nan nan nan nan nan nan nan nan nan nan nan nan nan nan nan nan nan nan nan nan nan nan nan nan nan nan nan nan nan nan nan nan nan nan nan nan nan nan nan nan nan nan nan -0 -0 -0 -0 -0 -0 -0 -0 -0 -0 -0 -0 -0 -0 -0 -0 -24 nan nan nan
nan nan nan nan nan nan nan nan nan nan -0 -0 -0 -0 nan nan nan nan nan nan nan nan nan nan nan nan nan nan nan nan nan nan nan nan nan nan nan nan nan nan nan nan nan nan nan nan nan nan nan nan nan nan nan nan nan nan nan nan nan nan nan nan nan nan nan nan -0 -0 -0 -0 -0 -0 -0 -0 -0 -0 -0 -0 -0 -0 -0 -0 nan nan nan nan
nan nan nan nan nan nan nan nan nan nan nan nan nan nan nan nan nan nan nan nan nan nan nan nan nan nan nan nan nan nan nan nan nan nan nan nan nan nan nan nan nan nan nan nan nan nan nan nan nan nan nan nan nan nan nan nan nan nan nan nan nan nan nan nan nan nan nan nan -0 -0 -0 -0 -0 -0 -0 -0 -0 -0 -0 -0 -0 -0 nan nan nan nan
nan nan nan nan nan nan nan nan nan nan nan nan nan nan nan nan nan nan nan nan nan nan nan nan nan nan nan nan nan nan nan nan nan nan nan nan nan nan nan nan nan nan nan nan nan nan nan nan nan nan nan nan nan nan nan nan nan nan nan nan nan nan nan nan nan nan nan nan nan nan -0 -0 -0 -0 -0 -0 -0 -0 -0 -0 -0 -0 -10 nan nan nan
nan nan nan nan nan nan nan nan nan nan nan nan nan nan nan nan nan nan nan nan nan nan nan nan nan nan nan nan nan nan nan nan nan nan nan nan nan nan nan nan nan nan nan nan nan nan nan nan nan nan nan nan nan nan nan nan nan nan nan nan nan nan nan nan nan nan nan nan nan nan nan nan -6 -6 -0 -0 -0 -0 -0 -0 -0 -0 -0 nan nan nan
nan nan nan nan nan nan nan nan nan nan nan nan nan nan nan nan nan nan nan nan nan nan nan nan nan nan nan nan nan nan nan nan nan nan nan nan nan nan nan nan nan nan nan nan nan nan nan nan nan nan nan nan nan nan nan nan nan nan nan nan nan nan nan nan nan nan nan nan nan nan nan nan nan nan nan -8 -0 -0 -0 -0 -0 -0 -0 -0 -0 -17
nan nan nan nan nan nan nan nan nan nan nan nan nan nan nan nan nan nan nan nan nan nan nan nan nan nan nan nan nan nan nan nan nan nan nan nan nan nan nan nan nan nan nan nan nan nan nan nan nan nan nan nan nan nan nan nan nan nan nan nan nan nan nan nan nan nan nan nan nan nan nan nan nan nan nan -1 -0 -0 -0 -0 -0 -0 -0 -0 -0 -0
nan nan nan nan nan nan nan nan nan nan nan nan nan nan nan nan nan nan nan nan nan nan nan nan nan nan nan nan nan nan nan nan nan nan nan nan nan nan nan nan nan nan nan nan nan nan nan nan nan nan nan nan nan nan nan nan nan nan nan nan nan nan nan nan nan nan nan nan nan nan nan nan nan nan nan -1 -9 -9 -1 -0 -0 -0 -0 -0 -0 -0
nan nan nan nan nan nan nan nan nan nan nan nan nan nan nan nan nan nan nan nan nan nan nan nan nan nan nan nan nan nan nan nan nan nan nan nan nan nan nan nan nan nan nan nan nan nan nan nan nan nan nan nan nan nan nan nan nan nan nan nan nan nan nan nan nan nan nan nan nan nan nan nan nan nan nan nan nan nan nan nan nan nan -0 -3 -3 -0
nan nan nan nan nan nan nan nan nan nan nan nan nan nan nan nan nan nan nan nan nan nan nan nan nan nan nan nan nan nan nan nan nan nan nan nan nan nan nan nan nan nan nan nan nan nan nan nan nan nan nan nan nan nan nan nan nan nan nan nan nan nan nan nan nan nan nan nan nan nan nan nan nan nan nan nan nan nan nan nan nan nan nan nan nan nan
nan nan nan nan nan nan nan nan nan nan nan nan nan nan nan nan nan nan nan nan nan nan nan nan nan nan nan nan nan nan nan nan nan nan nan nan nan nan nan nan nan nan nan nan nan nan nan nan nan nan nan nan nan nan nan nan nan nan nan nan nan nan nan nan nan nan nan nan nan nan nan nan nan nan nan nan nan nan nan nan nan nan nan nan nan nan
nan nan nan nan nan nan nan nan nan nan nan nan nan nan nan nan nan nan nan nan nan nan nan nan nan nan nan nan nan nan nan nan nan nan nan nan nan nan nan nan nan nan nan nan nan nan nan nan nan nan nan nan nan nan nan nan nan nan -0 nan nan nan nan nan nan nan nan nan nan nan nan nan nan nan nan nan nan nan nan nan nan nan nan nan nan nan
nan nan nan nan nan nan nan nan nan nan nan nan nan nan nan nan nan nan nan nan nan nan nan nan nan nan nan nan nan nan nan nan nan nan nan nan nan nan nan nan nan nan nan nan nan nan nan nan nan nan nan nan nan nan nan nan nan nan nan nan nan nan nan nan nan nan nan nan nan nan nan nan nan nan nan nan nan nan nan nan nan nan nan nan nan nan
nan nan nan nan nan nan nan nan nan nan nan nan nan nan nan nan nan nan nan nan nan nan nan nan nan nan nan nan nan nan nan nan nan nan nan nan nan nan nan nan nan nan nan nan nan nan nan -3 -3 nan nan nan nan nan nan nan nan nan nan nan nan nan nan nan nan nan nan nan nan nan nan nan nan nan nan nan nan nan nan nan nan nan nan nan nan nan
nan nan nan nan nan nan nan nan nan nan nan nan nan nan nan nan nan nan nan nan nan nan nan nan nan nan nan nan nan nan nan nan nan nan nan nan nan nan nan nan nan nan nan nan nan nan nan nan nan nan nan nan nan nan nan nan nan nan nan nan nan nan nan nan nan nan nan nan nan nan nan nan nan nan nan nan nan nan nan nan nan nan nan nan nan nan
nan nan nan nan nan nan nan nan nan nan nan nan nan nan nan nan nan nan nan nan nan nan nan nan nan nan nan nan nan nan nan nan nan nan nan nan nan nan nan nan nan nan nan nan nan nan nan nan nan nan nan nan nan nan nan nan nan nan nan nan nan nan nan nan nan nan nan nan nan nan nan nan nan nan nan nan nan nan nan nan nan nan nan nan nan nan
nan nan nan nan nan nan nan nan nan nan nan nan nan nan nan nan nan nan nan nan nan nan nan nan nan nan nan nan nan nan nan nan nan nan nan nan nan nan nan nan nan nan nan nan nan nan nan nan nan nan nan nan nan nan nan nan nan nan nan nan nan nan nan nan nan nan nan nan nan nan nan nan nan nan nan nan nan nan nan nan nan nan nan nan nan nan
nan nan nan nan nan nan nan nan nan nan nan nan nan nan nan nan nan nan nan nan nan nan nan nan nan nan nan nan nan nan nan nan nan nan nan nan nan nan nan nan nan nan nan nan nan nan nan nan nan nan nan nan nan nan nan nan nan nan nan nan nan nan nan nan nan nan nan nan nan nan nan nan nan nan nan nan nan nan nan nan nan nan nan nan nan nan
nan nan nan nan nan nan nan nan nan nan nan nan nan nan nan nan nan nan nan nan nan nan nan nan nan nan nan nan nan nan nan nan nan nan nan nan nan nan nan nan nan nan nan nan nan nan nan nan nan nan nan nan nan nan nan nan nan nan nan nan nan nan nan nan nan nan nan nan nan nan nan nan nan nan nan nan nan nan nan nan nan nan nan nan nan nan
nan nan nan nan nan nan nan nan nan nan nan nan nan nan nan nan nan nan nan nan nan nan nan nan nan nan nan nan nan nan nan nan nan nan nan nan nan nan nan nan nan nan nan nan nan nan nan nan nan nan nan nan nan nan nan nan nan nan nan nan nan nan nan nan nan nan nan nan nan nan nan nan nan nan nan nan nan nan nan nan nan nan nan nan nan nan
nan nan nan nan nan nan nan nan nan nan nan nan nan nan nan nan nan nan nan nan nan nan nan nan nan nan nan nan nan nan nan nan nan nan nan nan nan nan nan nan nan nan nan nan nan nan nan -8 -8 -4 -1 -2 nan nan nan nan nan nan nan nan nan nan nan nan nan nan nan nan nan nan nan nan nan nan nan nan nan nan nan nan nan nan nan nan nan nan
nan nan nan nan nan nan nan nan nan nan nan nan nan nan nan nan nan nan nan nan nan nan nan nan nan nan nan nan nan nan nan nan nan nan nan nan nan nan nan nan nan nan nan nan nan nan nan nan nan -7 -0 -0 -2 -2 nan nan nan nan nan nan nan nan nan nan nan nan nan nan nan nan nan nan nan nan nan nan nan nan nan nan nan nan nan nan nan nan
Wind_Speed
1 1 1 1 2 2 2 2 2 2 1 1 1 1 1 1 2 2 2 1 1 1 0 0 2 3 4 5 5 5 5 4 4 4 4 3 3 3 3 3 3 3 3 3 4 4 4 4 5 5 5 6 6 6 6 7 7 7 7 7 7 7 7 7 7 7 7 7 7 7 6 6 5 5 5 5 5 5 5 4 4 4 4 5 5 5
2 1 1 1 2 2 2 2 2 2 2 2 1 1 0 1 1 1 2 2 2 1 1 1 2 3 3 4 4 5 4 4 4 4 4 4 4 4 3 3 3 3 3 4 4 4 4 4 5 5 5 6 6 6 6 7 7 7 7 7 8 8 8 8 8 8 8 8 8 7 7 6 6 5 5 4 4 4 5 5 5 5 6 6 6 6
2 1 1 1 1 2 2 2 2 2 2 2 2 1 1 1 1 1 2 2 3 2 1 1 1 2 3 3 4 4 4 4 4 4 4 4 4 4 4 3 3 3 3 4 4 4 4 4 4 5 5 5 5 6 6 6 7 7 7 7 8 8 8 8 8 8 8 8 8 7 7 6 6 5 5 5 5 5 5 5 5 5 6 6 6 6
2 2 2 1 2 2 2 2 1 1 1 1 0 1 1 1 1 1 1 1 2 2 2 1 1 2 3 3 3 3 4 4 4 4 4 4 4 4 4 4 3 3 4 4 4 4 4 4 4 4 5 5 5 5 6 6 6 7 7 7 8 8 8 8 8 8 8 8 8 8 7 7 6 6 5 5 5 5 5 5 5 5 5 5 6 6
2 2 2 1 1 2 2 1 0 1 1 1 1 1 1 1 0 0 1 1 1 2 2 1 0 2 3 2 2 2 3 3 3 3 3 3 3 3 3 3 3 3 3 3 3 3 3 4 4 4 4 4 5 5 5 6 6 6 7 7 7 8 8 8 8 8 8 8 8 8 7 7 6 6 6 6 6 6 6 5 5 5 5 6 6 6
1 1 1 1 1 1 1 0 1 1 1 1 1 1 1 1 1 1 1 1 1 1 2 1 0 2 3 2 2 1 2 2 2 2 2 2 3 3 3 3 3 3 3 3 3 3 3 3 3 3 4 4 4 5 5 6 6 6 7 7 7 8 8 8 8 8 8 8 8 8 8 7 7 6 6 6 6 6 6 6 6 6 6 6 6 7
1 1 1 1 1 1 1 1 1 1 1 1 1 0 0 1 1 1 1 1 1 1 1 1 1 1 2 2 2 1 1 1 1 1 1 2 2 2 2 2 2 2 2 2 2 2 2 3 3 4 4 4 5 5 5 6 6 6 7 7 7 7 8 8 8 8 8 8 8 8 8 8 7 7 6 6 6 6 7 7 7 7 7 7 7 7
1 1 1 1 1 1 1 1 1 1 1 1 1 0 0 0 0 1 1 0 0 1 1 2 2 2 1 1 1 1 1 1 1 1 1 1 1 2 2 2 2 1 1 2 2 3 3 4 4 5 5 6 6 6 6 6 6 7 7 7 7 7 8 8 8 8 8 8 8 8 8 8 8 7 7 6 6 7 7 7 7 7 8 8 8 8
2 1 1 2 2 1 1 1 1 1 1 1 1 1 1 0 1 1 1 1 1 1 1 2 2 2 2 2 1 1 1 1 1 1 1 1 1 2 2 2 2 2 2 3 3 4 5 5 6 6 7 7 7 7 7 7 7 7 7 7 7 8 8 8 8 8 8 8 8 8 8 8 8 8 7 7 7 7 7 7 8 8 8 8 8 8
2 2 1 1 1 1 1 1 1 1 1 1 1 2 2 1 1 1 1 2 2 2 1 2 1 1 2 2 2 2 2 2 2 1 1 1 1 1 1 1 1 2 4 4 5 5 6 7 7 7 8 7 7 7 7 7 7 7 7 7 8 8 8 8 8 8 8 8 8 8 8 8 9 8 8 8 8 8 8 8 8 8 8 8 8 9
1 1 1 1 1 1 1 1 1 1 1 1 1 1 2 2 2 2 1 1 2 2 2 1 0 0 1 2 2 2 2 2 3 3 2 1 0 0 0 1 2 3 4 5 5 6 7 7 8 8 8 8 7 7 7 7 7 7 7 7 8 8 8 8 8 8 8 8 8 8 8 8 9 9 9 9 9 9 9 8 8 8 8 8 9 9
1 1 1 1 1 1 1 0 0 1 2 2 2 2 2 1 1 2 2 0 0 1 1 1 1 1 1 0 1 1 2 2 2 2 2 2 1 1 1 1 2 3 3 4 5 6 7 8 8 8 8 8 7 7 7 6 6 6 6 7 7 8 8 8 8 8 8 8 8 8 8 8 8 8 9 9 9 9 9 9 9 9 9 9 9 9
1 1 1 1 1 1 1 1 1 2 2 2 2 1 0 1 0 1 2 1 1 1 1 1 1 1 1 0 0 1 1 1 1 2 2 2 2 1 1 1 1 1 2 2 3 4 6 7 8 8 8 7 7 7 6 6 6 6 6 7 7 8 8 8 8 8 7 7 7 7 7 7 8 8 8 9 9 9 9 9 9 9 9 9 9 9
1 1 1 1 1 0 0 1 1 1 1 1 1 1 2 1 0 1 2 1 1 1 0 1 1 2 2 1 1 1 1 1 1 2 2 2 2 1 0 1 1 1 1 1 2 3 4 5 5 6 7 6 5 5 5 5 5 6 6 7 8 8 8 8 8 8 7 7 7 7 7 7 7 7 7 8 8 8 9 9 9 9 9 9 9 9
1 1 1 1 0 0 0 1 1 1 1 1 1 1 0 1 1 2 2 1 2 2 2 2 2 2 2 2 1 1 1 1 2 2 2 3 2 1 0 0 1 1 1 1 1 2 3 3 3 3 3 3 3 2 3 3 5 6 7 8 8 9 9 8 8 8 8 8 7 7 7 7 7 7 7 7 7 8 8 8 8 9 9 9 8 8
1 1 1 1 1 1 1 1 1 1 1 1 1 1 1 1 1 1 1 1 1 2 2 2 2 3 3 3 2 1 1 2 2 1 2 3 3 2 0 1 1 1 1 1 1 2 2 2 2 2 2 3 3 4 4 4 5 7 8 8 9 9 9 9 8 8 8 8 8 8 7 7 7 7 7 7 7 8 8 8 8 8 8 8 8 8
1 1 1 1 1 1 1 1 1 1 1 1 1 1 1 1 1 1 1 1 1 1 1 1 1 1 2 3 3 2 1 2 2 1 1 2 2 2 0 1 0 1 1 1 1 2 2 2 2 2 2 4 5 5 5 6 7 7 8 9 9 9 9 9 9 9 9 8 8 8 8 8 8 8 8 8 8 8 8 8 8 8 8 8 8 7
0 1 1 1 1 1 1 1 1 1 1 1 1 1 1 1 1 1 1 1 1 1 1 1 1 1 1 2 3 2 0 2 2 1 1 2 3 2 0 1 1 1 1 1 2 2 2 2 2 2 3 5 6 7 7 7 7 8 8 8 9 9 9 9 9 9 9 9 9 9 9 8 8 8 8 8 8 8 8 8 8 8 8 8 8 8
0 1 1 1 1 1 1 1 1 1 1 1 1 1 1 1 1 1 1 1 2 2 2 1 1 1 1 2 3 2 1 2 2 2 0 2 3 2 1 1 1 1 0 1 2 2 2 2 3 4 5 7 7 8 8 8 8 8 8 8 9 9 9 10 10 10 10 10 10 10 9 9 9 9 9 9 9 9 9 9 9 9 8 8 8 8
1 0 1 1 1 1 1 1 1 1 1 1 1 2 1 1 1 1 1 1 1 1 2 2 1 1 1 2 3 2 0 2 2 1 0 2 3 3 2 0 1 0 1 2 2 2 2 2 2 3 5 6 7 8 8 8 8 8 8 8 8 9 9 10 10 10 10 10 10 10 10 10 10 10 10 10 10 10 9 9 9 9 9 9 9 9
1 0 1 1 1 1 1 0 0 1 1 2 2 2 1 1 1 1 1 1 1 1 1 1 1 2 2 2 3 3 1 2 2 1 0 1 2 3 2 0 1 1 1 2 2 2 1 1 1 2 4 6 8 8 8 8 7 7 7 8 8 9 9 9 9 9 10 10 10 10 10 10 10 10 10 10 10 10 10 10 10 10 10 9 9 9
1 0 1 1 1 2 1 1 1 2 2 3 2 2 1 1 1 1 1 1 1 1 0 1 2 2 2 2 3 3 1 1 1 1 1 1 2 3 2 0 1 1 1 2 2 2 1 1 1 2 4 7 8 9 8 7 6 6 7 7 8 8 8 8 8 8 8 9 9 9 9 9 10 10 10 10 10 10 10 10 10 10 10 10 10 10
2 1 1 2 2 2 2 2 2 2 3 3 3 2 2 2 2 1 1 1 1 1 1 2 2 2 2 3 3 3 3 2 2 2 2 0 2 3 2 0 1 0 1 2 2 2 1 1 2 3 5 8 9 8 7 6 5 5 6 7 7 7 7 7 7 7 7 7 8 8 8 9 9 9 9 10 10 10 10 10 11 11 11 11 11 11
3 2 2 2 2 2 2 2 2 2 3 3 2 2 2 3 3 3 3 2 2 1 1 1 2 2 3 3 3 3 3 2 3 3 2 1 2 2 2 0 0 0 2 2 2 1 1 2 2 2 3 7 8 8 6 4 4 4 5 6 6 7 6 6 7 7 7 7 8 8 8 9 9 9 9 9 9 10 10 10 10 11 11 11 11 11
3 3 3 2 3 3 3 3 3 3 3 2 2 2 1 2 2 1 1 1 0 0 1 2 2 2 2 2 2 2 2 1 2 3 2 1 1 2 2 0 0 1 2 2 2 1 1 2 2 2 2 5 6 6 4 3 4 4 5 6 6 6 6 7 7 7 7 8 8 8 9 9 9 9 10 10 10 9 9 9 10 10 10 10 11 11
3 3 3 3 3 4 4 5 5 5 4 3 2 2 1 1 1 1 2 1 1 1 1 1 1 2 2 2 2 2 2 1 1 3 3 1 1 2 2 1 0 1 2 2 2 1 1 2 2 2 2 3 4 4 3 3 4 5 5 6 6 7 7 7 7 8 8 8 9 9 9 10 10 10 10 10 10 10 10 10 9 10 10 10 10 10
3 3 3 3 3 3 3 3 3 4 4 4 3 3 2 2 2 2 1 1 1 0 0 0 1 2 2 2 2 2 2 1 0 1 3 2 1 1 2 1 0 0 1 2 2 2 3 3 3 2 2 2 2 2 3 4 4 5 6 7 7 7 7 8 8 8 8 8 9 9 10 10 10 11 11 11 11 11 10 10 10 10 10 9 8 7
2 2 2 2 2 2 2 2 2 2 3 3 3 3 2 3 2 1 2 1 1 0 0 1 1 1 1 2 2 2 2 1 1 1 2 2 1 1 2 1 0 0 1 2 2 3 3 3 3 2 2 2 1 1 2 4 5 6 7 7 7 8 8 8 8 8 8 8 9 9 9 10 10 11 11 11 11 11 11 11 11 10 9 7 5 3
1 1 2 2 2 3 3 2 3 3 4 5 5 4 2 3 3 2 3 2 1 0 1 2 2 2 2 2 2 2 2 2 1 1 2 2 1 1 2 1 1 1 1 2 2 2 2 2 2 1 1 1 1 1 2 3 4 5 6 7 7 7 8 8 8 8 8 8 8 9 9 10 11 11 11 12 12 12 12 12 11 10 7 5 3 1
1 1 2 2 3 3 2 2 3 4 6 6 7 6 3 2 3 3 3 2 1 1 2 2 2 2 1 1 2 2 2 3 2 0 2 2 0 1 1 1 1 1 1 2 2 2 2 2 2 1 1 1 1 1 2 2 3 3 3 5 5 6 7 7 8 8 8 8 9 9 10 10 11 11 11 11 12 12 12 13 11 9 4 3 2 1
0 1 1 1 1 1 1 1 2 3 4 5 5 4 2 1 2 3 2 2 2 2 2 2 2 2 1 0 0 1 2 3 3 1 2 2 1 1 0 0 1 1 1 2 1 1 2 3 3 2 2 2 2 2 2 2 2 2 1 2 2 3 5 6 7 7 8 8 9 10 10 10 11 11 11 11 11 12 12 13 11 8 4 2 2 2
0 0 0 0 0 0 0 1 1 1 2 2 2 2 1 1 2 2 2 3 3 3 2 2 2 2 1 2 2 2 2 3 3 1 3 2 1 1 1 1 0 1 0 2 2 1 1 2 2 2 2 2 2 2 2 2 2 2 1 1 1 2 4 4 5 5 6 7 9 10 10 11 11 11 11 11 11 11 12 12 11 9 4 3 2 3
1 1 1 1 1 0 0 0 1 1 1 1 1 1 2 2 2 2 2 3 3 3 3 2 2 2 2 2 2 2 2 3 2 1 3 2 1 0 0 1 0 1 1 1 1 2 2 2 2 2 2 2 2 2 2 2 2 2 1 1 1 2 3 2 3 3 4 5 6 7 9 10 10 11 11 11 11 11 11 11 11 10 7 4 3 3
1 1 1 2 2 1 1 1 1 1 2 2 2 2 2 2 2 2 2 2 2 3 3 3 3 2 2 2 2 2 2 3 2 1 3 3 2 1 0 1 0 0 1 0 0 0 1 2 2 2 2 2 2 2 2 2 2 2 1 0 1 1 2 2 2 2 2 3 3 4 5 7 8 9 10 10 10 10 10 10 11 10 9 6 4 3
1 1 2 2 2 2 2 2 2 2 2 2 2 3 3 2 2 2 2 2 2 3 3 3 4 3 3 2 2 2 3 3 2 2 3 3 2 1 1 0 1 1 1 0 0 1 1 1 2 2 2 2 2 2 2 2 2 2 1 0 0 1 1 1 1 2 2 2 2 2 3 4 4 6 7 8 9 9 10 10 10 10 10 9 7 5
1 1 2 2 2 2 2 2 2 2 2 2 2 2 2 2 2 2 2 2 2 3 3 3 3 3 4 4 3 3 3 3 2 1 3 2 2 2 1 1 1 1 1 0 0 1 1 2 2 2 2 2 2 2 2 2 2 2 2 2 2 2 2 2 2 2 2 2 2 3 3 3 3 4 5 7 9 9 10 10 10 10 10 10 10 8
0 1 2 2 2 2 2 2 2 2 2 2 1 1 1 1 2 2 2 2 2 2 2 3 3 3 3 3 4 4 3 3 1 1 2 2 2 2 1 1 1 1 2 1 1 1 1 2 2 3 2 2 2 2 2 2 3 3 3 2 2 3 3 3 3 2 2 3 3 3 3 3 3 3 4 7 8 9 9 9 9 10 10 11 11 11
1 1 2 2 2 2 2 1 2 2 2 1 1 1 1 1 1 1 1 2 2 2 2 2 2 2 3 3 3 3 2 2 1 1 2 2 3 2 2 1 1 0 1 1 1 1 1 2 3 3 2 2 2 3 3 2 2 2 3 3 3 3 3 3 3 3 2 3 3 4 4 3 3 3 4 5 4 4 4 5 6 7 9 9 10 11
1 2 2 2 2 2 2 2 2 2 2 1 1 1 1 1 1 1 1 1 2 2 3 3 2 2 3 3 3 3 3 2 1 1 1 2 2 2 2 1 1 1 1 1 1 1 1 2 3 3 3 3 3 2 2 2 2 2 3 3 3 3 3 3 3 2 2 2 3 4 4 4 3 3 3 3 2 2 2 2 3 4 4 4 5 8
2 2 2 2 2 2 2 2 2 2 1 1 1 0 0 0 0 1 1 1 1 1 2 2 2 2 2 3 3 4 4 3 2 2 1 2 2 2 3 2 2 2 1 1 1 1 2 3 3 4 4 3 3 3 3 2 3 3 4 3 3 2 2 2 2 2 2 2 3 3 3 3 4 3 3 3 2 2 2 2 2 3 2 2 2 3
2 2 2 2 2 2 2 2 2 1 1 1 1 1 1 1 1 1 1 1 1 1 1 1 1 1 2 2 3 3 4 4 4 4 3 3 3 3 3 3 3 2 2 2 2 2 3 3 4 4 4 4 4 5 5 4 5 6 6 5 4 3 4 4 3 3 2 2 2 3 3 3 3 3 3 3 3 3 3 3 2 2 2 2 2 2
2 2 2 2 2 2 1 1 0 1 1 1 1 0 1 1 1 1 1 1 1 1 1 1 1 1 2 3 3 3 4 4 5 6 6 6 6 5 5 4 4 3 2 2 3 3 3 4 4 4 4 3 4 4 4 4 4 5 5 4 4 5 5 4 3 2 1 2 2 3 3 3 3 3 3 3 3 3 3 3 4 4 3 2 2 3
3 2 2 2 2 1 1 0 1 1 1 1 0 1 2 2 2 1 1 1 1 2 2 1 1 1 2 2 3 3 3 4 5 6 7 6 6 6 6 5 5 4 3 3 3 3 4 5 5 4 4 3 4 4 5 5 5 4 4 4 4 4 3 3 2 1 1 2 2 3 3 3 3 4 3 3 3 3 3 4 5 6 5 3 3 3
3 2 2 2 1 0 1 0 0 0 0 1 1 2 2 2 2 2 2 2 2 2 1 1 1 1 1 2 2 2 3 3 4 5 6 7 7 7 6 6 5 5 4 3 3 3 3 4 4 4 3 3 4 5 5 5 4 4 4 4 4 4 4 3 3 3 3 3 3 2 3 3 3 3 3 3 3 2 2 3 3 3 3 3 3 3
2 2 1 1 1 0 0 1 1 1 1 2 2 2 2 2 2 2 2 2 2 2 1 1 1 0 1 1 2 2 2 3 3 3 4 6 7 8 6 5 5 5 5 4 4 4 3 3 3 3 3 3 4 5 6 5 5 5 5 5 5 5 4 4 4 4 4 3 3 3 3 3 2 2 2 2 2 2 2 3 3 3 3 3 3 4
2 2 2 1 1 2 2 2 2 2 2 2 2 2 2 2 2 2 2 2 2 2 2 1 1 1 2 2 1 1 2 2 2 2 2 3 4 5 5 5 5 5 4 4 4 4 4 4 3 3 3 4 4 5 6 5 5 5 5 5 5 4 4 5 4 4 4 4 4 3 3 3 2 2 3 3 3 3 3 3 3 4 4 4 4 4
3 3 3 2 2 2 2 2 2 2 2 2 3 3 2 2 2 2 2 2 2 2 1 1 1 2 2 2 1 1 1 2 2 2 2 2 2 3 3 4 5 5 5 5 5 5 5 5 4 4 4 4 5 5 6 5 5 5 5 5 4 4 4 4 4 3 3 3 3 3 3 2 2 3 3 4 4 4 3 3 3 4 4 4 4 4
4 4 4 3 3 3 2 2 2 2 2 3 3 3 2 2 3 3 2 2 2 2 2 1 1 2 2 2 2 2 2 3 3 2 2 2 2 2 3 3 4 4 5 5 6 6 6 6 6 6 5 5 6 6 6 5 5 5 5 5 5 5 5 4 4 3 3 3 3 3 2 2 3 3 4 4 4 4 4 4 4 4 4 4 4 4
4 4 4 4 3 3 3 3 3 3 3 3 2 2 2 3 4 4 2 2 2 2 2 2 2 2 3 2 3 3 3 3 3 2 2 2 1 1 2 3 3 3 4 5 5 6 6 7 8 8 8 7 7 7 7 6 6 5 5 5 5 5 5 5 4 3 3 3 4 3 3 3 3 4 3 4 5 5 5 5 4 4 4 4 4 4
4 4 4 4 4 4 3 3 3 3 3 3 3 2 2 2 2 2 2 2 2 2 2 3 3 3 3 3 3 3 3 3 3 2 2 2 1 1 1 2 3 3 3 3 4 4 4 5 6 8 10 10 10 9 7 7 6 5 5 5 5 4 5 4 4 4 4 4 4 4 5 4 4 3 3 4 5 6 6 5 5 4 3 3 4 4
4 4 4 4 4 4 4 3 4 4 4 3 3 2 2 1 1 1 1 1 1 2 2 3 3 3 4 4 3 3 4 3 3 2 2 2 1 1 1 1 2 2 2 2 2 2 2 2 3 5 7 11 13 12 8 7 6 5 5 5 4 4 4 4 4 4 5 5 5 4 4 4 4 3 3 3 4 5 6 6 5 4 3 3 3 4
Wind_Direction
124 139 153 136 117 102 88 85 94 108 125 119 114 117 147 209 234 253 266 291 304 304 261 110 102 96 89 77 72 69 66 67 67 69 70 74 78 84 89 93 95 95 92 91 91 90 89 86 81 75 68 62 55 48 42 37 33 29 25 21 18 15 12 9 6 3 1 1 1 3 7 15 21 24 24 21 19 18 18 16 14 12 10 9 8 7
126 125 116 106 103 98 88 67 66 72 79 75 68 56 357 283 289 316 343 347 346 347 16 54 83 92 94 82 72 67 64 63 64 65 66 70 74 80 87 93 97 99 97 97 95 93 89 83 76 69 62 56 49 43 38 32 28 24 20 17 14 11 8 6 4 1 360 359 358 359 2 5 10 12 11 7 6 4 4 3 3 1 360 359 357 355
136 121 106 82 82 88 91 65 54 51 54 53 41 13 332 332 346 359 357 347 342 346 1 26 75 92 95 85 73 65 63 61 61 62 63 67 72 77 83 90 94 96 96 96 93 89 83 74 67 60 54 48 42 36 31 26 21 17 13 10 7 4 2 360 358 356 355 354 353 353 355 356 358 359 357 354 352 350 350 352 353 353 352 350 347 342
131 123 120 100 79 74 81 74 67 63 66 72 51 300 285 305 347 358 334 329 328 330 329 342 63 95 99 89 77 68 66 64 63 63 62 64 68 72 78 83 87 89 91 89 85 79 72 63 55 49 43 37 31 27 21 17 13 9 6 2 359 356 353 352 350 348 347 345 345 344 345 345 346 347 346 344 343 341 341 341 343 342 341 338 335 331
119 121 125 115 95 76 69 66 94 166 160 168 190 210 226 210 195 231 282 295 301 303 299 307 65 101 107 103 92 81 76 72 69 66 63 63 64 66 70 75 79 81 80 77 72 65 57 47 39 32 26 21 16 12 7 4 1 359 356 353 349 347 344 342 340 338 336 335 334 333 333 334 335 336 337 337 336 335 334 333 332 331 330 328 326 323
109 112 114 109 104 100 90 214 247 234 193 193 199 202 195 178 175 189 238 260 269 274 280 290 78 106 115 123 127 121 104 90 82 77 70 66 64 63 64 66 68 69 67 62 55 45 36 26 16 8 2 358 354 351 350 348 347 346 344 342 339 337 335 332 330 328 326 324 323 323 322 322 323 324 327 328 328 328 326 325 323 322 321 320 320 319
100 96 102 103 110 121 145 215 241 242 203 203 215 232 205 171 178 194 213 222 239 268 297 330 23 73 102 121 130 132 120 106 101 95 88 83 76 68 62 60 57 52 47 37 26 12 1 351 343 337 333 331 330 330 330 331 332 331 331 330 328 326 325 323 321 319 317 315 313 313 312 312 312 313 314 315 316 317 316 316 315 314 314 314 315 314
116 119 126 128 127 137 162 218 237 234 191 171 166 166 335 301 261 249 253 285 356 9 11 8 13 22 35 53 72 79 71 74 69 61 76 66 61 60 57 49 34 17 1 346 335 328 323 319 316 314 312 312 313 315 316 318 319 320 320 319 318 316 315 314 313 311 309 307 306 305 304 303 303 302 301 302 302 303 303 305 306 307 307 309 309 310
133 145 159 147 141 141 154 225 247 240 187 157 149 146 143 23 332 338 359 3 10 20 42 32 18 3 349 354 15 35 36 49 56 68 93 55 43 45 45 23 1 336 317 312 309 307 306 304 304 303 302 303 305 307 309 312 314 314 314 313 311 309 308 307 306 305 304 302 300 299 298 297 295 293 292 289 288 289 291 293 296 299 301 303 304 304
126 136 143 135 132 136 141 185 241 252 203 137 132 133 127 110 68 29 21 1 349 354 31 53 39 3 336 339 353 13 23 10 3 11 90 106 109 99 60 5 332 315 304 303 303 303 302 302 301 300 300 302 303 305 309 311 313 314 313 311 310 308 306 305 304 302 301 299 297 295 293 292 290 288 286 283 282 281 282 285 288 291 295 297 298 299
93 104 104 72 55 81 116 159 210 248 37 62 63 61 68 88 93 85 57 2 335 337 356 22 63 99 321 330 341 359 19 2 351 346 350 337 257 183 232 277 293 299 300 305 306 307 307 307 305 304 305 305 306 308 312 314 316 316 315 313 311 309 307 305 303 301 299 297 295 293 290 289 287 286 284 282 280 280 279 281 283 286 289 291 292 291
90 90 93 90 63 41 48 46 357 17 44 52 47 31 11 16 91 111 110 126 303 321 331 319 301 226 184 210 337 1 20 8 349 338 338 333 327 315 302 305 308 310 312 321 323 321 318 318 317 316 315 315 315 316 317 319 321 321 319 317 314 311 308 305 302 299 296 294 292 290 288 286 285 283 282 281 280 279 279 279 280 281 283 284 284 284
79 79 81 81 79 76 70 44 24 26 39 60 77 86 326 296 92 113 119 151 197 220 242 308 309 300 276 183 121 69 42 13 345 335 339 335 334 339 356 348 336 333 339 346 343 337 330 330 329 327 327 327 327 326 327 329 328 326 323 319 316 313 309 306 302 298 295 292 289 287 284 283 281 280 279 278 278 277 277 277 277 278 278 278 277 277
65 58 62 61 58 79 138 114 93 73 55 95 137 162 201 239 46 69 72 28 290 268 91 15 328 317 329 340 20 86 87 47 6 352 347 329 318 315 23 3 337 334 24 17 353 337 334 342 341 337 335 337 337 340 348 343 335 326 321 318 315 312 309 305 303 300 296 293 290 287 284 283 282 280 279 278 276 275 274 274 274 274 273 272 272 272
119 103 91 102 155 221 197 129 118 120 148 175 178 171 160 27 40 50 53 9 338 340 21 12 352 335 338 326 328 13 86 68 39 10 346 320 306 294 90 29 344 339 27 28 346 322 326 340 339 332 332 334 340 351 360 344 325 316 314 312 310 308 306 305 303 301 300 297 294 292 290 288 287 286 283 280 278 276 274 272 271 270 268 268 268 268
141 130 137 158 184 212 216 146 129 134 166 182 139 90 68 47 45 54 68 27 359 5 28 20 2 345 334 321 320 337 75 75 63 29 346 312 301 294 93 67 359 341 1 5 323 307 315 324 321 312 310 304 306 309 311 311 308 306 306 305 305 303 302 302 301 300 299 298 296 295 293 291 290 288 286 284 282 279 276 274 272 270 267 266 265 264
129 129 143 150 168 200 226 133 128 136 151 129 94 93 102 111 108 99 94 77 46 37 46 54 34 348 323 317 315 320 57 88 85 62 352 300 291 288 123 121 139 296 319 311 290 283 294 298 299 296 289 293 296 299 300 300 300 300 301 300 300 299 298 298 297 296 295 295 294 293 292 290 288 286 285 285 283 282 280 278 276 273 270 266 263 260
112 136 139 141 160 178 177 107 102 109 108 95 83 79 90 113 116 112 109 102 92 81 76 90 123 176 268 289 289 287 34 110 105 86 358 292 286 286 301 119 136 173 262 279 276 270 268 265 261 265 277 288 290 292 293 294 295 296 296 297 297 296 294 293 292 291 290 289 289 289 288 286 284 282 281 280 280 280 280 279 278 276 274 269 264 259
197 167 141 151 161 161 129 116 112 108 99 109 101 84 55 44 63 82 101 115 127 133 138 140 169 206 220 248 260 262 201 118 108 96 357 285 284 288 319 73 98 123 244 262 261 259 257 255 259 267 278 285 288 288 289 290 291 293 295 296 295 294 292 290 288 287 286 285 284 284 284 282 281 279 277 276 275 275 274 274 274 274 274 273 269 263
182 188 172 160 143 115 87 98 118 124 130 127 110 95 80 52 45 49 60 95 130 139 138 145 181 225 229 246 259 266 218 91 85 74 304 277 280 286 303 81 108 135 282 265 257 251 248 253 264 275 282 284 286 287 287 288 291 293 296 297 297 295 292 289 286 284 282 281 281 280 279 279 278 276 275 272 270 269 269 268 269 270 271 273 273 270
144 212 227 162 124 105 96 118 126 119 117 102 88 78 72 58 44 34 17 34 42 56 78 126 210 228 230 252 267 275 283 67 65 56 306 292 288 286 285 153 123 130 273 272 266 259 251 256 261 269 277 285 287 287 288 289 292 296 298 298 297 295 291 288 284 282 280 278 278 278 277 276 275 273 272 270 268 266 265 264 264 265 267 269 271 272
127 196 251 122 105 105 113 124 113 99 97 92 91 90 90 81 67 39 358 33 36 31 356 241 236 236 240 261 271 273 258 128 126 133 98 315 295 286 280 170 113 117 242 265 269 272 272 269 267 274 284 290 290 290 289 290 293 297 298 298 296 294 291 287 285 282 280 280 280 279 278 277 275 272 270 268 265 263 261 260 260 260 261 263 265 267
112 117 92 80 86 96 106 110 102 93 91 99 112 129 143 140 146 159 184 170 182 211 233 241 250 260 269 274 275 272 257 197 155 133 114 231 275 276 280 12 83 90 250 259 269 283 301 289 277 281 289 292 292 291 289 289 291 294 296 297 296 294 292 290 289 289 288 288 287 286 284 282 280 277 274 270 266 263 259 257 256 256 256 257 258 260
97 97 90 85 89 97 106 107 102 95 91 102 116 136 153 159 164 170 177 176 183 204 241 285 306 309 299 284 278 272 260 192 143 126 122 191 246 261 273 332 46 321 266 261 263 278 305 294 283 280 286 289 289 288 285 282 283 287 292 294 294 294 293 293 294 295 296 295 294 293 292 290 288 285 282 278 273 268 263 260 257 255 254 254 255 256
99 102 101 101 105 110 113 112 110 108 106 107 112 126 151 165 165 157 140 132 135 355 349 352 334 314 297 289 285 283 282 187 130 127 131 178 245 265 275 269 152 246 268 270 275 288 311 292 284 280 282 285 284 281 273 265 269 277 286 290 291 291 291 292 293 295 296 296 296 296 295 294 292 290 288 286 282 277 272 266 262 259 257 256 256 258
103 110 115 116 115 115 116 118 121 125 130 132 137 145 151 123 74 45 26 10 356 352 359 348 314 293 289 298 297 296 300 315 120 130 135 146 238 280 284 276 183 215 269 282 292 302 300 286 281 280 280 279 278 272 258 252 261 272 279 284 285 286 286 287 288 289 291 292 293 294 293 292 291 289 288 286 283 281 278 273 268 264 261 259 259 260
92 100 107 114 119 124 127 135 141 147 152 161 169 170 140 96 68 40 353 313 304 7 41 326 296 292 300 305 293 286 292 298 221 148 133 126 139 275 280 277 256 233 281 289 287 283 280 277 274 271 269 271 277 275 260 264 271 277 281 282 282 282 282 283 284 285 287 289 290 291 291 291 289 288 285 283 282 279 277 274 271 267 264 262 261 261
90 102 116 135 150 164 179 189 199 206 212 219 222 211 140 104 98 120 249 240 222 99 96 256 266 274 285 277 275 276 285 274 240 185 129 115 130 250 265 274 295 47 313 301 294 287 282 276 270 264 261 262 274 286 281 282 284 285 287 285 284 283 284 285 286 288 290 291 291 292 291 290 289 287 285 283 280 278 275 273 271 268 266 264 264 266
169 191 198 206 211 216 222 234 244 248 252 255 256 251 202 134 145 184 218 206 181 174 260 253 249 247 250 265 280 291 295 277 255 185 112 103 128 252 263 297 358 34 26 338 325 317 309 293 284 277 270 274 291 306 300 294 291 290 289 289 290 291 293 295 296 297 298 298 296 295 293 292 290 288 285 283 280 278 275 273 271 270 268 267 266 267
220 219 223 226 229 229 226 235 248 254 258 260 263 264 253 170 165 180 196 178 173 200 241 248 248 243 244 296 319 317 298 285 277 244 102 100 128 263 283 334 356 17 58 29 4 341 322 311 308 308 309 324 327 318 301 297 293 290 289 292 296 299 299 302 303 305 306 304 302 300 297 295 292 289 286 283 281 278 276 274 273 271 270 269 265 260
173 188 218 235 238 233 214 210 228 245 255 262 269 274 272 190 170 175 179 172 179 195 220 234 237 232 210 187 313 296 283 280 279 273 103 110 166 240 236 358 337 337 85 88 65 354 314 309 310 316 332 344 335 314 298 293 289 285 286 297 302 302 299 303 306 309 310 309 307 305 303 300 297 294 290 286 282 279 277 274 273 271 270 264 259 258
83 112 150 257 293 257 206 209 217 232 246 260 270 276 268 217 187 179 177 177 180 188 204 219 226 223 205 190 201 224 250 267 268 252 107 113 151 219 148 111 348 322 68 115 125 146 259 289 299 313 335 338 328 313 302 297 290 284 284 296 296 296 297 306 312 314 313 310 309 307 306 305 303 300 297 292 287 283 278 275 273 270 266 258 252 251
23 17 3 341 336 326 283 239 224 222 226 229 236 240 243 229 209 194 183 178 177 179 188 203 216 224 223 215 218 228 248 264 264 232 110 110 116 186 110 95 63 338 351 95 131 158 195 238 272 299 318 319 312 306 303 298 293 290 293 296 287 291 301 318 321 316 308 306 306 306 306 306 305 303 301 297 293 288 283 278 274 270 264 255 246 246
5 351 337 330 323 314 300 282 257 237 226 220 219 216 214 217 211 203 193 183 178 176 178 187 197 208 219 231 241 251 263 274 289 353 95 104 112 129 90 97 105 70 12 4 341 236 227 241 264 290 305 305 303 299 295 291 295 303 326 316 281 291 303 322 322 307 296 298 299 301 303 303 302 301 300 299 296 292 288 282 277 272 267 260 249 241
351 328 314 307 301 294 288 279 266 251 236 227 220 213 206 202 201 199 197 193 189 185 182 185 188 191 194 205 226 246 257 266 297 359 74 97 111 118 101 149 158 147 114 199 295 300 287 277 278 288 301 307 306 299 287 284 296 314 336 345 313 296 294 303 301 295 292 295 293 288 288 289 290 292 293 294 294 293 290 286 281 276 272 266 260 251
326 297 285 276 270 268 266 263 256 248 240 234 226 214 201 195 195 195 196 197 198 199 199 198 193 189 187 189 199 219 238 246 274 13 63 93 109 115 116 195 178 150 133 170 227 261 281 284 286 289 297 301 300 298 292 300 319 335 340 340 332 319 300 292 287 285 290 292 287 281 277 276 276 277 281 290 292 293 293 291 289 284 279 274 269 263
270 270 267 258 250 247 249 247 239 232 230 236 234 221 202 195 195 195 200 196 198 202 209 215 215 210 204 195 197 206 223 229 231 81 77 100 110 116 133 202 189 149 136 165 214 261 280 288 291 291 290 279 276 282 295 316 333 340 333 327 321 314 304 298 292 288 283 280 277 274 274 274 276 279 284 291 295 297 298 296 293 290 286 281 276 272
246 254 257 250 240 232 230 230 225 221 214 217 217 212 204 193 194 198 202 195 193 194 203 214 226 236 242 237 226 220 225 232 224 143 107 115 119 124 142 191 226 182 154 171 194 242 279 286 289 289 286 269 264 271 288 310 320 317 304 300 296 293 291 291 290 287 280 278 279 281 284 285 287 289 290 294 297 300 299 296 291 288 286 284 280 277
235 244 249 246 236 222 215 217 217 213 205 200 199 198 189 181 188 197 205 200 197 197 201 206 216 229 245 254 259 259 260 260 250 206 148 140 140 145 160 190 223 230 208 187 193 221 253 266 272 276 280 282 282 282 287 295 298 297 296 296 292 284 278 281 284 283 279 280 286 290 291 289 287 284 282 283 282 278 275 275 271 271 274 280 282 281
227 235 243 242 233 217 205 208 209 207 193 189 181 161 99 34 330 293 274 250 229 219 211 209 215 227 239 249 258 263 266 264 255 238 205 184 178 180 190 206 220 229 229 218 218 228 242 256 263 268 272 281 288 292 292 290 292 296 301 302 299 292 286 284 280 277 274 274 277 282 283 281 279 276 274 269 261 251 244 245 250 249 244 234 255 277
223 232 243 245 239 225 213 205 200 187 157 121 74 40 13 347 320 309 306 305 294 279 262 257 267 278 282 275 267 262 257 256 252 245 235 223 216 211 210 215 218 220 221 233 241 244 246 255 262 266 269 275 282 285 285 286 290 293 297 296 294 292 292 287 281 275 275 275 272 272 276 282 284 283 278 273 261 249 238 234 239 245 245 213 198 201
227 232 235 239 239 239 233 218 169 106 88 80 76 199 235 222 222 231 255 282 283 276 257 242 256 278 288 288 283 274 260 251 246 241 237 229 221 217 216 217 215 212 213 230 244 249 250 253 257 261 264 270 277 281 281 281 282 284 284 285 290 293 294 289 283 275 272 278 280 283 288 291 292 289 283 279 271 263 256 247 247 251 253 232 209 200
228 230 230 227 224 220 209 63 49 49 56 53 248 234 224 210 202 199 205 221 236 242 237 217 206 217 247 269 280 283 274 257 246 240 235 227 219 214 213 212 208 202 201 220 238 248 249 249 252 255 258 261 267 272 277 281 280 277 272 276 285 292 295 289 286 281 269 274 277 281 284 280 277 273 273 272 270 269 269 268 268 267 263 249 233 225
223 228 228 225 218 189 82 63 47 214 208 234 242 244 238 221 213 209 208 214 223 229 228 204 178 178 221 250 268 279 283 275 262 249 237 225 216 208 205 203 198 193 189 203 224 240 248 248 249 250 250 254 260 265 270 274 276 276 271 270 271 273 274 279 286 289 287 280 274 267 262 263 265 269 273 271 268 266 268 269 272 274 273 262 252 247
217 226 230 224 211 184 205 229 225 220 220 229 236 240 244 231 221 214 208 212 218 221 218 181 150 162 255 256 260 269 280 287 283 271 251 228 215 205 196 193 191 190 191 202 213 227 238 246 250 252 251 252 256 260 265 270 273 276 274 270 267 265 263 270 276 281 281 278 273 265 255 255 261 270 278 275 271 266 263 265 269 273 273 270 266 261
219 226 229 219 210 211 219 219 219 221 229 235 240 241 241 231 221 213 210 208 210 212 209 174 167 192 239 250 259 269 282 292 293 287 269 227 205 194 187 188 190 192 196 206 213 220 227 237 245 253 258 258 258 257 257 262 268 272 274 272 271 270 270 271 271 272 272 273 273 270 262 260 264 272 277 280 279 274 266 260 259 261 265 266 265 263
221 222 222 217 214 214 219 217 216 221 232 237 240 240 238 229 222 219 220 208 202 199 198 179 181 199 224 233 240 250 268 280 285 285 279 238 202 184 180 188 193 195 199 208 215 222 228 231 235 241 250 257 259 259 256 256 258 263 269 271 271 271 270 268 265 264 264 267 269 269 272 272 274 277 279 282 283 279 273 263 256 253 254 257 259 260
222 222 219 214 211 212 217 214 214 217 227 235 240 241 238 229 224 223 224 206 195 191 192 188 199 215 228 232 233 234 247 259 265 270 277 263 225 192 182 188 195 202 209 215 221 225 229 229 229 230 234 244 253 259 260 256 255 256 261 265 268 268 268 265 263 260 259 259 258 257 258 261 266 271 279 283 284 282 277 271 262 253 248 249 252 256
222 220 216 211 209 211 215 213 212 217 226 232 238 244 245 241 236 231 222 200 185 182 187 197 209 222 234 238 240 242 248 254 256 257 258 261 249 215 187 187 192 202 213 220 226 229 233 233 230 228 227 233 242 252 258 257 255 253 255 258 260 262 265 266 266 263 262 259 254 250 244 245 249 255 266 276 281 282 282 278 271 260 249 245 246 249
224 220 214 210 210 212 215 214 215 219 225 229 234 240 250 255 246 231 212 195 188 188 193 199 208 221 237 242 245 247 248 252 252 250 247 246 245 232 206 193 193 199 211 221 227 231 237 239 235 231 227 228 233 240 250 253 254 253 252 251 251 253 257 261 263 261 259 257 254 249 246 247 246 247 252 266 275 280 283 281 278 271 258 250 247 248
227 222 215 212 213 215 216 214 216 219 223 226 229 233 240 253 261 261 236 209 207 209 209 206 211 221 236 244 247 248 248 250 248 246 243 233 225 225 234 223 215 213 220 229 233 236 242 253 254 246 237 230 228 228 237 242 246 250 251 248 245 243 246 253 255 256 255 255 253 249 245 245 245 245 246 259 272 280 283 282 281 277 269 262 258 258